Flag for Romania Weather past 2 weeks in Constanța, Romania

Now
66 °F

Passing clouds.


Feels Like: 66 °F
Forecast: 60 / 71 °F
Wind: 1 mph from North

Location: Constanta

Current Time: Sep 18, 2014 at 9:39:01 PM

Latest Report: Sep 18, 2014 at 9:00 PM


Visibility: 6 mi

Pressure: 30.18 "Hg

Humidity: 67%

Dew point: 55 °F

Location of ConstanțaLocation

Historic Weather in Constanța — Graph

°F

Constanța temperature yesterday

Maximum temperature yesterday: 71 °F (at 4:00 PM)
Minimum temperature yesterday: 64 °F (at 4:00 AM)
Average temperature yesterday: 67 °F

Past Weeks' High & Low Weather Summary

 TemperatureHumidityPressure
High82 °F (Sep 9, 12:00 PM)98% (Sep 11, 7:00 AM)30.16 "Hg (Sep 11, 7:00 AM)
Low63 °F (Sep 10, 7:00 AM)30% (Sep 9, 12:00 PM)29.80 "Hg (Sep 7, 7:00 AM)
Average72 °F71%29.97 "Hg
* Reported Sep 3 8:00 PM — Sep 18 8:00 PM, Constanța, Weather by CustomWeather, © 2014

Note: Actual official high and low records may vary slightly from our data, if they occured in-between our weather recording intervals... More about our weather records

Advertising

Constanța weather history for previous 24 hours

 ConditionsComfort  
Time TempWeatherWind HumidityBarometerVisibility
8:00 PM
Sep 18
67 °FPassing clouds.5 mph59%30.16 "Hg6 mi
7:00 PM68 °FPassing clouds.5 mph61%30.15 "Hg6 mi
6:00 PM69 °FPassing clouds.6 mph43%30.14 "Hg6 mi
5:00 PM69 °FPassing clouds.6 mph51%30.13 "Hg6 mi
4:00 PM71 °FScattered clouds.2 mph55%30.12 "Hg6 mi
3:00 PM70 °FScattered clouds.6 mph60%30.12 "Hg6 mi
2:00 PM71 °FScattered clouds.7 mph62%30.11 "Hg6 mi
1:00 PM70 °FScattered clouds.3 mph71%30.11 "Hg6 mi
12:00 PM68 °FScattered clouds.6 mph75%30.10 "Hg6 mi
11:00 AM68 °FScattered clouds.2 mph73%30.09 "Hg6 mi
10:00 AM67 °FScattered clouds.1 mph73%30.09 "Hg6 mi
9:00 AM65 °FScattered clouds.1 mph75%30.07 "Hg6 mi
8:00 AM63 °FScattered clouds.1 mph77%30.06 "Hg6 mi
7:00 AM64 °FScattered clouds.2 mph76%30.05 "Hg6 mi
6:00 AM65 °FClear.2 mph75%30.04 "Hg6 mi
5:00 AM65 °FClear.1 mph71%30.03 "Hg6 mi
4:00 AM65 °FClear.2 mph74%30.03 "Hg6 mi
3:00 AM66 °FClear.2 mph70%30.03 "Hg6 mi
2:00 AM66 °FClear.3 mph73%30.04 "Hg6 mi
1:00 AM65 °FClear.2 mph77%30.05 "Hg6 mi
12:00 AM66 °FClear.1 mph78%30.06 "Hg6 mi
11:00 PM
Sep 17
68 °FClear.1 mph74%30.06 "Hg6 mi
10:00 PM69 °FPassing clouds.6 mph67%30.07 "Hg6 mi
9:00 PM69 °FPassing clouds.5 mph66%30.06 "Hg6 mi
Weather by CustomWeather, © 2014

See weather overviewHow to use our weather pages